Other Public Products
Issued by NWS Charleston, SC

Home | Current Version | Previous Version | Text Only | Print | Product List | Glossary On
Versions: 1 2 3 4 5 6 7 8 9 10 11 12 13 14 15 16 17 18 19 20 21 22 23 24 25 26 27 28 29 30 31 32 33 34 35 36 37 38 39 40 41 42 43 44 45 46 47 48 49 50
676
FPUS82 KCHS 180227
OPUCHS

TEST...KCHS/KSAV Gateway Observations...TEST
National Weather Service Charleston SC
1000 PM EDT TUE OCT 17 2017

NOTE: "fair" indicates few or no clouds below 12,000 feet with no
significant weather and/or obstructions to visibility.

SCZ050-WAZ558-NCZ071-TXZ119-213-PAZ071-DCZ001-FLZ074-172-MI076-
NYZ176-178-MAZ016-IL014-TNZ027-NJZ106-GAZ044-MD014-180300-

...Gateway Observations for Charleston International...

CITY           SKY/WX    TMP DP  RH WIND       PRES   REMARKS
Chas Airport   CLEAR     53  48  83 NE6       30.28R
Seattle        CLOUDY    55  40  56 SE6       30.12S
Charlotte      CLEAR     57  42  57 E7        30.32R
Dallas DFW     CLEAR     66  42  41 SE6       30.13S
Dallas Love    PTCLDY    66  41  40 SE6       30.15R
Philladelphia  CLEAR     53  40  61 SW7       30.32R
Wash National  CLEAR     53  42  66 SE6       30.34R
Baltimore      CLEAR     44  42  93 CALM      30.33R
Miami          CLOUDY    83  74  74 NE5       30.01R
Detroit        PTCLDY    55  42  61 S9        30.20R
Newark         CLEAR     52  39  61 S12       30.29R
Laguardia      CLEAR     56  38  50 SW10      30.28S
J F K          CLEAR     54  44  69 SW13      30.30R
Boston Logan   CLEAR     49  37  63 SW15G25   30.24S
Ft. Lauderdale CLOUDY    81  74  79 NE8       30.01R
Chicago O`Hare CLEAR     61  40  45 SW12      30.14R
Chicago Midway CLEAR     61  40  45 S8G17     30.15R
Houston Bush   CLEAR     61  50  67 CALM      30.17R
Houston Hobby  CLEAR     64  49  57 CALM      30.16R
Nashville      PTCLDY    54  43  66 CALM      30.27S
Atlanta        PTCLDY    56  44  64 E6        30.28R

$$

GAZ044-118-TXZ119-213-NCZ071-DCZ001-MDZ014-506-PAZ021-071-NJZ106-
NYZ176-178-MAZ106-OHZ011-021-055-MIZ076-KYZ091-ILZ014-INZ047-
MNZ060-ONZ431-180300-

...Gateway Observations for Savannah International...

CITY           SKY/WX    TMP DP  RH WIND       PRES   REMARKS
Savannah Arpt  CLEAR     58  46  64 NE9       30.26R
Atlanta        PTCLDY    56  44  64 E6        30.28R
Charlotte      CLEAR     57  42  57 E7        30.32R
Dallas DFW     CLEAR     66  42  41 SE6       30.13S
Houston Bush   CLEAR     61  50  67 CALM      30.17R
Wash National  CLEAR     53  42  66 SE6       30.34R
Wash Dulles    CLEAR     44  39  82 CALM      30.33R
Baltimore      CLEAR     44  42  93 CALM      30.33R
Philadelphia   CLEAR     53  40  61 SW7       30.32R
Newark         CLEAR     52  39  61 S12       30.29R
Laguardia      CLEAR     56  38  50 SW10      30.28S
J F K          CLEAR     54  44  69 SW13      30.30R
Boston         CLEAR     49  37  63 SW15G25   30.24S
Pittsburg      CLEAR     53  40  61 S3        30.27R
Akron          CLEAR     51  38  60 SW7       30.26R
Cleveland      PTCLDY    57  39  51 S10       30.25R
Cincinnati     PTCLDY    51  45  79 S6        30.27S
Columbus       CLEAR     50  41  71 S3        30.27R
Detroit        PTCLDY    55  42  61 S9        30.20R
Chicago O`Hare CLEAR     61  40  45 SW12      30.14R
Minneapolis    CLEAR     65  43  44 S8        29.91F
Indianapolis   CLEAR     52  40  63 S8        30.26R
Toronto Canada CLEAR     55  45  67 W13       30.12R

$$




USA.gov is the U.S. government's official web portal to all federal, state and local government web resources and services.